Location: Champs
(48.8539°N, 2.6040°E)
Time: 23:59:09
(UTC+00:00)

DMSP 5D-2 F13 DEB - Pass Details

Date: 14 August 2022
Orbit: 710 x 774 km, 98.8° (Epoch: 28 September)

Event Time Altitude Azimuth Distance (km) Brightness Sun altitude
Exits shadow 21:38:36 17° 83° (E) 1,908 ? -20.2°
Maximum altitude 21:40:25 20° 57° (ENE) 1,750 ? -20.4°
Drops below altitude 10° 21:44:04 10° 12° (NNE) 2,345 ? -20.7°
Sets 21:46:57 0° 356° (N) 3,281 ? -21.0°
